^^
Saratoga-Weather Station Historical Data
Daily Summary for October 7, 2020 Units:  English    Metric   Both
Daily Weekly Monthly Yearly Custom
  High: Low: Average:
Temperature: 60.1 °F 50.7 °F 54 °F
Dew Point: 53.2 °F 48.6 °F 50.4 °F
Humidity: 94% 71% 88%
Wind Speed: 15mph 0mph 4mph
Wind Gust: 17mph - -
Wind- - West
Pressure: 30.1 in 29.7 in -
Precipitation: 0.17 in    
Historical Graphs
 
 
Tabular Data for October 7, 2020
Time Temperature Dew Point Pressure Wind Wind Speed Wind Gust Humidity Rainfall Rate (Hourly) solar
00:03 52.9 °F 50 °F 29.7 in NNW 2 mph 8 mph 90% 0.01 in 0 W/m2
00:08 52.9 °F 50 °F 29.7 in WNW 6.9 mph 10 mph 90% 0.01 in 0 W/m2
00:13 53.1 °F 50.2 °F 29.7 in NW 2.9 mph 10 mph 90% 0.01 in 0 W/m2
00:18 53.1 °F 50.2 °F 29.7 in North 4 mph 4 mph 90% 0.01 in 0 W/m2
00:23 53.1 °F 49.8 °F 29.7 in West 2 mph 10 mph 89% 0.01 in 0 W/m2
00:28 53.1 °F 49.8 °F 29.7 in WNW 2.9 mph 9 mph 89% 0.01 in 0 W/m2
00:33 53.1 °F 49.8 °F 29.7 in WNW 6.9 mph 12 mph 89% 0 in 0 W/m2
00:38 53.1 °F 49.8 °F 29.7 in WNW 4 mph 12 mph 89% 0 in 0 W/m2
00:43 53.1 °F 49.8 °F 29.7 in WNW 2 mph 9 mph 89% 0 in 0 W/m2
00:48 53.1 °F 49.8 °F 29.7 in NW 4 mph 12 mph 89% 0 in 0 W/m2
00:53 53.1 °F 49.8 °F 29.7 in NW 6 mph 6 mph 89% 0 in 0 W/m2
00:58 52.9 °F 50 °F 29.7 in WNW 4 mph 8 mph 90% 0 in 0 W/m2
01:03 52.9 °F 50 °F 29.7 in WNW 4 mph 9 mph 90% 0 in 0 W/m2
01:08 52.9 °F 50 °F 29.7 in WNW 2 mph 7 mph 90% 0 in 0 W/m2
01:13 52.9 °F 50 °F 29.7 in WNW 2 mph 10 mph 90% 0 in 0 W/m2
01:18 52.9 °F 49.6 °F 29.7 in WNW 4 mph 5 mph 89% 0 in 0 W/m2
01:23 53.1 °F 49.8 °F 29.7 in NNW 2.9 mph 14 mph 89% 0 in 0 W/m2
01:28 53.1 °F 49.8 °F 29.7 in NW 2 mph 4 mph 89% 0 in 0 W/m2
01:33 53.1 °F 49.8 °F 29.7 in West 12.1 mph 12 mph 89% 0 in 0 W/m2
01:38 53.1 °F 49.8 °F 29.7 in South 4.9 mph 6 mph 89% 0 in 0 W/m2
01:43 53.1 °F 49.6 °F 29.7 in NW 10.1 mph 12 mph 88% 0 in 0 W/m2
01:48 53.1 °F 49.6 °F 29.7 in WNW 6.9 mph 9 mph 88% 0 in 0 W/m2
01:53 53.1 °F 49.6 °F 29.7 in West 6.9 mph 14 mph 88% 0 in 0 W/m2
01:58 53.1 °F 49.6 °F 29.7 in NNW 2 mph 8 mph 88% 0 in 0 W/m2
02:03 53.1 °F 49.6 °F 29.7 in NW 2 mph 14 mph 88% 0 in 0 W/m2
02:08 52.9 °F 49.6 °F 29.7 in SW 4 mph 9 mph 89% 0 in 0 W/m2
02:13 52.5 °F 49.6 °F 29.7 in West 2 mph 11 mph 90% 0 in 0 W/m2
02:18 52.5 °F 49.6 °F 29.7 in SW 0.9 mph 7 mph 90% 0 in 0 W/m2
02:23 52.3 °F 49.8 °F 29.7 in WSW 2 mph 9 mph 91% 0.01 in 0 W/m2
02:28 52.3 °F 49.8 °F 29.7 in West 2.9 mph 3 mph 91% 0.01 in 0 W/m2
02:33 52.2 °F 49.8 °F 29.7 in NW 4 mph 9 mph 92% 0.01 in 0 W/m2
02:38 52.2 °F 49.8 °F 29.7 in West 4 mph 8 mph 92% 0.01 in 0 W/m2
02:43 52.2 °F 49.8 °F 29.7 in NW 4 mph 9 mph 92% 0.01 in 0 W/m2
02:48 52.2 °F 49.8 °F 29.7 in West 2 mph 10 mph 92% 0.01 in 0 W/m2
02:53 52 °F 49.6 °F 29.7 in West 8.1 mph 8 mph 92% 0.02 in 0 W/m2
02:58 52 °F 49.6 °F 29.7 in NW 2 mph 7 mph 92% 0.02 in 0 W/m2
03:03 52 °F 49.6 °F 29.7 in WNW 2.9 mph 14 mph 92% 0.02 in 0 W/m2
03:08 52 °F 49.6 °F 29.7 in West 2.9 mph 6 mph 92% 0.02 in 0 W/m2
03:13 52.2 °F 49.8 °F 29.7 in West 6 mph 14 mph 92% 0.02 in 0 W/m2
03:18 52.2 °F 49.8 °F 29.7 in WSW 0.9 mph 10 mph 92% 0.02 in 0 W/m2
03:23 52.2 °F 49.8 °F 29.7 in South 0.9 mph 7 mph 92% 0.01 in 0 W/m2
03:28 52 °F 49.6 °F 29.7 in NW 2.9 mph 7 mph 92% 0.01 in 0 W/m2
03:33 52 °F 49.6 °F 29.7 in WSW 0.9 mph 7 mph 92% 0.01 in 0 W/m2
03:38 52 °F 49.6 °F 29.7 in NW 2.9 mph 4 mph 92% 0.01 in 0 W/m2
03:43 52 °F 49.6 °F 29.7 in North 2.9 mph 9 mph 92% 0.01 in 0 W/m2
03:48 52 °F 49.6 °F 29.7 in SSW 4.9 mph 7 mph 92% 0.01 in 0 W/m2
03:53 52 °F 49.6 °F 29.7 in West 0.9 mph 2 mph 92% 0 in 0 W/m2
03:58 52.2 °F 49.8 °F 29.7 in NNW 2 mph 8 mph 92% 0 in 0 W/m2
04:03 52.2 °F 49.8 °F 29.7 in Calm   2 mph 92% 0 in 0 W/m2
04:08 52.2 °F 49.8 °F 29.7 in North 2 mph 7 mph 92% 0 in 0 W/m2
04:13 52.2 °F 49.8 °F 29.7 in NW 2.9 mph 4 mph 92% 0 in 0 W/m2
04:19 52.2 °F 49.8 °F 29.7 in WNW 4 mph 9 mph 92% 0 in 0 W/m2
04:24 52.2 °F 49.8 °F 29.8 in SW 2.9 mph 7 mph 92% 0 in 0 W/m2
04:29 52.2 °F 49.8 °F 29.7 in WNW 6 mph 9 mph 92% 0 in 0 W/m2
04:34 52.2 °F 49.8 °F 29.8 in WNW 2.9 mph 7 mph 92% 0 in 0 W/m2
04:39 52.2 °F 49.8 °F 29.8 in NW 4.9 mph 5 mph 92% 0 in 0 W/m2
04:44 52.2 °F 49.8 °F 29.8 in WSW 10.1 mph 10 mph 92% 0 in 0 W/m2
04:49 52.2 °F 49.8 °F 29.8 in NW 8.1 mph 12 mph 92% 0 in 0 W/m2
04:54 52.2 °F 49.8 °F 29.8 in WNW 6.9 mph 9 mph 92% 0 in 0 W/m2
04:59 52.2 °F 49.8 °F 29.8 in West 2.9 mph 13 mph 92% 0 in 0 W/m2
05:04 52.2 °F 49.8 °F 29.8 in WNW 4.9 mph 5 mph 92% 0 in 0 W/m2
05:09 52.2 °F 50.2 °F 29.8 in West 2.9 mph 13 mph 93% 0 in 0 W/m2
05:14 52.2 °F 50.2 °F 29.8 in WNW 2.9 mph 8 mph 93% 0 in 0 W/m2
05:19 52.2 °F 50.2 °F 29.8 in WNW 4 mph 8 mph 93% 0 in 0 W/m2
05:24 52.2 °F 50.2 °F 29.8 in West 6 mph 12 mph 93% 0 in 0 W/m2
05:29 52.2 °F 50.2 °F 29.8 in WSW 4.9 mph 10 mph 93% 0 in 0 W/m2
05:34 52.2 °F 50.2 °F 29.8 in Calm   12 mph 93% 0 in 0 W/m2
05:39 52.2 °F 50.2 °F 29.8 in NW 2.9 mph 7 mph 93% 0.01 in 0 W/m2
05:44 52 °F 50 °F 29.8 in West 4 mph 11 mph 93% 0.02 in 0 W/m2
05:49 52 °F 50 °F 29.8 in Calm   5 mph 93% 0.02 in 0 W/m2
05:54 52 °F 50 °F 29.8 in WSW 2.9 mph 12 mph 93% 0.02 in 0 W/m2
05:59 52 °F 50 °F 29.8 in WSW 4 mph 9 mph 93% 0.02 in 0 W/m2
06:04 52 °F 50 °F 29.8 in SW 4.9 mph 12 mph 93% 0.03 in 0 W/m2
06:09 51.8 °F 49.8 °F 29.8 in WNW 10.1 mph 10 mph 93% 0.03 in 0 W/m2
06:14 52 °F 50 °F 29.8 in WSW 2 mph 9 mph 93% 0.04 in 0 W/m2
06:19 51.8 °F 49.8 °F 29.8 in West 2.9 mph 9 mph 93% 0.06 in 0 W/m2
06:24 51.6 °F 49.6 °F 29.8 in SW 6 mph 10 mph 93% 0.06 in 0 W/m2
06:29 51.6 °F 49.6 °F 29.8 in West 2.9 mph 8 mph 93% 0.08 in 0 W/m2
06:34 51.6 °F 50 °F 29.8 in WNW 8.9 mph 12 mph 94% 0.09 in 0 W/m2
06:39 51.6 °F 50 °F 29.8 in West 2.9 mph 9 mph 94% 0.09 in 0 W/m2
06:44 51.4 °F 49.8 °F 29.8 in West 6.9 mph 10 mph 94% 0.09 in 0 W/m2
06:49 51.4 °F 49.8 °F 29.8 in WNW 4.9 mph 12 mph 94% 0.09 in 0 W/m2
06:54 51.4 °F 49.8 °F 29.8 in West 2.9 mph 8 mph 94% 0.09 in 0 W/m2
06:59 51.4 °F 49.8 °F 29.8 in SW 6.9 mph 11 mph 94% 0.09 in 0 W/m2
07:04 51.4 °F 49.5 °F 29.8 in West 8.1 mph 11 mph 93% 0.08 in 0 W/m2
07:09 51.4 °F 49.5 °F 29.8 in WSW 8.1 mph 9 mph 93% 0.08 in 0 W/m2
07:14 51.3 °F 49.3 °F 29.8 in WSW 2 mph 12 mph 93% 0.07 in 0 W/m2
07:19 51.3 °F 49.3 °F 29.8 in WNW 8.9 mph 9 mph 93% 0.06 in 0 W/m2
07:24 51.4 °F 49.5 °F 29.8 in SW 6 mph 12 mph 93% 0.05 in 0 W/m2
07:29 51.3 °F 49.3 °F 29.8 in WNW 2.9 mph 7 mph 93% 0.03 in 0 W/m2
07:34 51.3 °F 49.6 °F 29.8 in West 2.9 mph 10 mph 94% 0.02 in 0 W/m2
07:39 51.4 °F 49.8 °F 29.8 in West 0.9 mph 8 mph 94% 0.02 in 0 W/m2
07:44 51.4 °F 49.8 °F 29.8 in NNW 4 mph   94% 0.01 in 0 W/m2
07:49 51.4 °F 49.8 °F 29.8 in SW 2.9 mph 8 mph 94% 0.01 in 0 W/m2
07:54 51.4 °F 49.8 °F 29.8 in NW 2.9 mph 7 mph 94% 0.01 in 5 W/m2
07:59 51.4 °F 49.8 °F 29.8 in West 6.9 mph 8 mph 94% 0 in 7 W/m2
08:04 51.4 °F 49.8 °F 29.8 in WNW 2 mph 9 mph 94% 0 in 9 W/m2
08:09 51.6 °F 50 °F 29.8 in WNW 4 mph 9 mph 94% 0 in 12 W/m2
08:14 51.6 °F 50 °F 29.8 in WNW 6.9 mph 9 mph 94% 0 in 12 W/m2
08:19 51.6 °F 50 °F 29.8 in West 4 mph 11 mph 94% 0 in 16 W/m2
08:24 51.6 °F 50 °F 29.8 in West 2.9 mph 12 mph 94% 0 in 23 W/m2
08:29 51.6 °F 49.6 °F 29.8 in West 4 mph 11 mph 93% 0 in 32 W/m2
08:34 51.6 °F 50 °F 29.9 in West 6 mph 12 mph 94% 0 in 86 W/m2
08:39 51.8 °F 50.2 °F 29.9 in West 4 mph 13 mph 94% 0 in 58 W/m2
08:44 52 °F 50 °F 29.9 in WSW 6 mph 9 mph 93% 0 in 63 W/m2
08:49 52.2 °F 50.2 °F 29.9 in NNW 4.9 mph 12 mph 93% 0 in 62 W/m2
08:54 52.2 °F 50.5 °F 29.9 in West 6 mph 9 mph 94% 0 in 79 W/m2
08:59 52.2 °F 50.2 °F 29.9 in West 6 mph 8 mph 93% 0 in 49 W/m2
09:04 52.3 °F 50.4 °F 29.9 in WNW 2.9 mph 8 mph 93% 0 in 42 W/m2
09:09 52.3 °F 50.4 °F 29.9 in West 8.9 mph 10 mph 93% 0 in 60 W/m2
09:14 52.2 °F 50.2 °F 29.9 in West 4 mph 7 mph 93% 0 in 60 W/m2
09:19 52.3 °F 50.4 °F 29.9 in West 6 mph 12 mph 93% 0 in 111 W/m2
09:24 52.3 °F 50.4 °F 29.9 in West 4 mph 13 mph 93% 0 in 77 W/m2
09:29 52.5 °F 50.5 °F 29.9 in WSW 8.1 mph 10 mph 93% 0 in 262 W/m2
09:34 52.9 °F 50.9 °F 29.9 in West 4 mph 12 mph 93% 0 in 86 W/m2
09:39 52.9 °F 50.9 °F 29.9 in WNW 8.1 mph 9 mph 93% 0 in 79 W/m2
09:44 53.1 °F 51.1 °F 29.9 in WNW 4 mph 14 mph 93% 0 in 357 W/m2
09:49 53.2 °F 51.3 °F 29.9 in WNW 4 mph 10 mph 93% 0 in 93 W/m2
09:54 53.2 °F 51.3 °F 29.9 in WNW 8.1 mph 14 mph 93% 0 in 93 W/m2
09:59 53.2 °F 51.3 °F 29.9 in West 2.9 mph 15 mph 93% 0 in 420 W/m2
10:04 53.6 °F 51.3 °F 29.9 in West 8.9 mph 13 mph 92% 0 in 113 W/m2
10:09 53.8 °F 51.3 °F 29.9 in West 8.1 mph 13 mph 91% 0 in 200 W/m2
10:14 53.8 °F 51.3 °F 29.9 in West 8.9 mph 9 mph 91% 0 in 98 W/m2
10:19 54 °F 51.4 °F 29.9 in WNW 4.9 mph 8 mph 91% 0 in 128 W/m2
10:24 54.1 °F 51.3 °F 29.9 in WSW 10.1 mph 12 mph 90% 0 in 381 W/m2
10:29 54.3 °F 51.1 °F 29.9 in WNW 8.9 mph 10 mph 89% 0 in 350 W/m2
10:34 54.3 °F 50.9 °F 29.9 in WSW 6.9 mph 11 mph 88% 0 in 392 W/m2
10:40 54.3 °F 50.9 °F 29.9 in West 6 mph 13 mph 88% 0 in 376 W/m2
10:45 54.3 °F 50.5 °F 29.9 in West 6 mph 16 mph 87% 0 in 404 W/m2
10:50 54.3 °F 50.5 °F 29.9 in West 10.1 mph 11 mph 87% 0 in 367 W/m2
10:55 54.3 °F 50.5 °F 29.9 in NW 4 mph 12 mph 87% 0 in 383 W/m2
11:00 54.9 °F 51.1 °F 29.9 in West 4 mph 10 mph 87% 0 in 473 W/m2
11:05 55.2 °F 51.1 °F 29.9 in West 8.1 mph 9 mph 86% 0 in 476 W/m2
11:10 55.6 °F 51.4 °F 29.9 in WSW 15 mph 15 mph 86% 0 in 559 W/m2
11:15 55.8 °F 51.1 °F 29.9 in NW 8.1 mph 10 mph 84% 0 in 116 W/m2
11:20 55.6 °F 50.9 °F 29.9 in WNW 15 mph 15 mph 84% 0 in 403 W/m2
11:25 55.6 °F 50.9 °F 29.9 in NW 8.9 mph 9 mph 84% 0 in 169 W/m2
11:30 55.6 °F 51.1 °F 29.9 in West 2.9 mph 12 mph 85% 0 in 285 W/m2
11:35 55.4 °F 50.7 °F 29.9 in WNW 4.9 mph 11 mph 84% 0 in 105 W/m2
11:40 55.4 °F 50.9 °F 29.9 in SW 4.9 mph 12 mph 85% 0 in 123 W/m2
11:45 55.4 °F 50.9 °F 29.9 in West 10.1 mph 11 mph 85% 0 in 274 W/m2
11:50 55.8 °F 51.3 °F 29.9 in SW 6 mph 12 mph 85% 0 in 123 W/m2
11:55 55.6 °F 51.4 °F 29.9 in West 6 mph 8 mph 86% 0 in 176 W/m2
12:00 55.4 °F 51.6 °F 29.9 in West 4 mph 10 mph 87% 0 in 366 W/m2
12:05 55.4 °F 51.6 °F 29.9 in WNW 6.9 mph 7 mph 87% 0 in 246 W/m2
12:10 55.6 °F 51.8 °F 29.9 in WSW 2.9 mph 6 mph 87% 0 in 206 W/m2
12:15 55.8 °F 52 °F 30 in WSW 4 mph 10 mph 87% 0 in 125 W/m2
12:20 55.6 °F 51.8 °F 30 in West 2.9 mph 6 mph 87% 0 in 63 W/m2
12:25 55.2 °F 51.8 °F 30 in WSW 2.9 mph 4 mph 88% 0.03 in 62 W/m2
12:30 54.9 °F 51.6 °F 30 in West 2 mph 6 mph 89% 0.04 in 163 W/m2
12:35 54.7 °F 51.8 °F 30 in West 0.9 mph 8 mph 90% 0.04 in 225 W/m2
12:40 54.9 °F 52.3 °F 30 in NNW 4 mph 9 mph 91% 0.04 in 229 W/m2
12:45 55 °F 52.5 °F 30 in West 4 mph 4 mph 91% 0.04 in 239 W/m2
12:50 55.2 °F 52.3 °F 30 in WNW 8.1 mph 8 mph 90% 0.04 in 206 W/m2
12:55 55.8 °F 52.5 °F 30 in West 10.1 mph 11 mph 89% 0.04 in 610 W/m2
13:00 56.5 °F 53.2 °F 30 in SW 6.9 mph 8 mph 89% 0.04 in 466 W/m2
13:05 56.7 °F 52.9 °F 30 in WNW 4.9 mph 8 mph 87% 0.04 in 350 W/m2
13:10 56.8 °F 53.1 °F 30 in SW 4.9 mph 11 mph 87% 0.04 in 548 W/m2
13:15 57 °F 52.5 °F 30 in WNW 4.9 mph 12 mph 85% 0.04 in 276 W/m2
13:20 57 °F 52.2 °F 30 in NW 13 mph 14 mph 84% 0.04 in 288 W/m2
13:25 57.2 °F 52.3 °F 30 in WSW 8.1 mph 12 mph 84% 0.01 in 371 W/m2
13:30 57.4 °F 52 °F 30 in West 11 mph 13 mph 82% 0 in 262 W/m2
13:35 57.4 °F 52.3 °F 30 in WSW 4.9 mph 5 mph 83% 0 in 301 W/m2
13:40 57.4 °F 52.3 °F 30 in West 6 mph 11 mph 83% 0 in 350 W/m2
13:45 57.4 °F 52.5 °F 30 in West 6 mph 9 mph 84% 0 in 279 W/m2
13:50 57.2 °F 52.3 °F 30 in West 2.9 mph 11 mph 84% 0 in 156 W/m2
13:55 56.8 °F 52.3 °F 30 in WSW 4.9 mph 10 mph 85% 0 in 304 W/m2
14:00 56.8 °F 52 °F 30 in NW 4.9 mph 11 mph 84% 0 in 218 W/m2
14:05 56.8 °F 52 °F 30 in West 4 mph 11 mph 84% 0 in 258 W/m2
14:10 56.8 °F 52.3 °F 30 in NW 2.9 mph 7 mph 85% 0 in 188 W/m2
14:15 56.8 °F 52.3 °F 30 in WNW 4 mph 7 mph 85% 0 in 91 W/m2
14:20 56.8 °F 52.3 °F 30 in WNW 6.9 mph 8 mph 85% 0 in 72 W/m2
14:25 56.7 °F 51.8 °F 30 in West 4 mph 10 mph 84% 0 in 181 W/m2
14:30 56.8 °F 51.8 °F 30 in WSW 2.9 mph 6 mph 83% 0 in 125 W/m2
14:35 57.2 °F 51.1 °F 30 in West 4 mph 14 mph 80% 0 in 56 W/m2
14:40 57.7 °F 50.9 °F 30 in WNW 2.9 mph 10 mph 78% 0 in 53 W/m2
14:45 58.1 °F 50.2 °F 30 in NW 2 mph 14 mph 75% 0 in 84 W/m2
14:50 58.5 °F 50.9 °F 30 in NW 2 mph 4 mph 76% 0 in 77 W/m2
14:55 58.5 °F 50.5 °F 30 in NW 12.1 mph 17 mph 75% 0 in 107 W/m2
15:00 57.9 °F 50 °F 30 in West 8.9 mph 15 mph 75% 0 in 134 W/m2
15:05 57.6 °F 50.4 °F 30 in West 2 mph 17 mph 77% 0 in 192 W/m2
15:10 57.7 °F 50.9 °F 30 in WNW 2.9 mph 8 mph 78% 0 in 118 W/m2
15:15 57.9 °F 51.1 °F 30 in West 2 mph 8 mph 78% 0 in 524 W/m2
15:20 58.3 °F 50.7 °F 30 in NW 10.1 mph 13 mph 76% 0 in 512 W/m2
15:25 58.5 °F 50.9 °F 30 in WSW 2.9 mph 12 mph 76% 0 in 501 W/m2
15:30 58.6 °F 51.1 °F 30 in WNW 2.9 mph 10 mph 76% 0 in 496 W/m2
15:35 58.8 °F 50.9 °F 30 in WNW 8.9 mph 12 mph 75% 0 in 487 W/m2
15:40 59.2 °F 50.5 °F 30 in WNW 4 mph 13 mph 73% 0 in 483 W/m2
15:45 59.5 °F 51.3 °F 30 in WSW 8.9 mph 12 mph 74% 0 in 476 W/m2
15:50 59.7 °F 50.7 °F 30 in WSW 4 mph 9 mph 72% 0 in 482 W/m2
15:55 60.1 °F 51.1 °F 30 in WSW 2.9 mph 13 mph 72% 0 in 455 W/m2
16:00 60.1 °F 51.1 °F 30 in WNW 4.9 mph 12 mph 72% 0 in 350 W/m2
16:05 59.5 °F 50.2 °F 30 in SSW 8.9 mph 14 mph 71% 0 in 200 W/m2
16:10 59.4 °F 50 °F 30 in NNW 2.9 mph 11 mph 71% 0 in 536 W/m2
16:15 59.5 °F 50.2 °F 30 in West 6 mph 10 mph 71% 0 in 508 W/m2
16:20 59.5 °F 50.9 °F 30 in NW 2.9 mph 7 mph 73% 0 in 146 W/m2
16:25 59.5 °F 50.9 °F 30 in WNW 2 mph 7 mph 73% 0 in 109 W/m2
16:30 59.2 °F 50.5 °F 30 in West 6.9 mph 8 mph 73% 0 in 111 W/m2
16:35 58.6 °F 50.4 °F 30 in NW 8.1 mph 8 mph 74% 0 in 137 W/m2
16:40 58.5 °F 50.5 °F 30 in West 6.9 mph 7 mph 75% 0 in 109 W/m2
16:45 58.1 °F 50.2 °F 30 in WNW 2 mph 9 mph 75% 0 in 84 W/m2
16:50 58.1 °F 50.5 °F 30 in West 4 mph 8 mph 76% 0 in 84 W/m2
16:55 57.9 °F 50 °F 30 in WNW 6.9 mph 13 mph 75% 0 in 83 W/m2
17:00 57.7 °F 50.2 °F 30 in West 2.9 mph 8 mph 76% 0 in 93 W/m2
17:05 57.7 °F 49.8 °F 30 in SW 4.9 mph 11 mph 75% 0 in 125 W/m2
17:10 57.6 °F 50 °F 30 in WSW 8.1 mph 8 mph 76% 0 in 76 W/m2
17:15 57.6 °F 50.4 °F 30 in West 6.9 mph 9 mph 77% 0 in 70 W/m2
17:21 57.4 °F 50.5 °F 30 in WSW 4.9 mph 10 mph 78% 0 in 56 W/m2
17:26 57.2 °F 50.4 °F 30 in WSW 4 mph 10 mph 78% 0 in 47 W/m2
17:31 57 °F 50.2 °F 30 in West 4 mph 11 mph 78% 0 in 42 W/m2
17:36 56.8 °F 50.4 °F 30 in West 4 mph 6 mph 79% 0 in 46 W/m2
17:41 56.8 °F 50.4 °F 30 in West 4 mph 14 mph 79% 0 in 46 W/m2
17:46 56.8 °F 50.7 °F 30 in West 2.9 mph 7 mph 80% 0 in 58 W/m2
17:51 56.7 °F 50.5 °F 30 in West 2.9 mph 9 mph 80% 0 in 51 W/m2
17:56 56.7 °F 50.9 °F 30 in NW 4.9 mph 7 mph 81% 0 in 51 W/m2
18:01 56.7 °F 50.9 °F 30 in West 2 mph 3 mph 81% 0 in 30 W/m2
18:06 56.5 °F 50.7 °F 30 in WNW 2.9 mph 9 mph 81% 0 in 21 W/m2
18:11 56.5 °F 50.7 °F 30 in NW 2 mph 7 mph 81% 0 in 16 W/m2
18:16 56.3 °F 50.5 °F 30 in West 4 mph 9 mph 81% 0 in 12 W/m2
18:21 56.1 °F 50.4 °F 30 in West 2.9 mph 5 mph 81% 0 in 9 W/m2
18:26 56.1 °F 50.7 °F 30 in NW 2.9 mph 8 mph 82% 0 in 9 W/m2
18:31 56.1 °F 50.7 °F 30 in West 4 mph 5 mph 82% 0 in 9 W/m2
18:36 56.1 °F 50.7 °F 30 in West 2.9 mph 7 mph 82% 0 in 12 W/m2
18:41 55.9 °F 50.5 °F 30 in WNW 2 mph 3 mph 82% 0 in 7 W/m2
18:46 55.9 °F 50.9 °F 30 in WSW 0.9 mph 5 mph 83% 0 in 5 W/m2
18:51 55.8 °F 50.7 °F 30 in WNW 0.9 mph 8 mph 83% 0 in 5 W/m2
18:56 55.8 °F 50.7 °F 30 in WNW 4 mph 7 mph 83% 0 in 5 W/m2
19:01 55.6 °F 50.9 °F 30 in WNW 2 mph 2 mph 84% 0 in 0 W/m2
19:06 55.6 °F 50.9 °F 30 in WNW 2.9 mph 3 mph 84% 0 in 0 W/m2
19:11 55.2 °F 50.5 °F 30 in WNW 2 mph 4 mph 84% 0 in 0 W/m2
19:16 55 °F 50.4 °F 30 in WNW 2.9 mph 4 mph 84% 0 in 0 W/m2
19:21 55 °F 50.5 °F 30 in West 2 mph 2 mph 85% 0 in 0 W/m2
19:26 54.9 °F 50.4 °F 30 in West 0.9 mph 3 mph 85% 0 in 0 W/m2
19:31 54.7 °F 50.5 °F 30.1 in Calm   4 mph 86% 0 in 0 W/m2
19:36 54.3 °F 50.2 °F 30.1 in WSW 0.9 mph 4 mph 86% 0 in 0 W/m2
19:41 54.1 °F 50.4 °F 30.1 in Calm   1 mph 87% 0 in 0 W/m2
19:46 54 °F 50.2 °F 30.1 in WNW 2.9 mph 6 mph 87% 0 in 0 W/m2
19:51 53.8 °F 50.4 °F 30.1 in WNW 0.9 mph 2 mph 88% 0 in 0 W/m2
19:56 53.8 °F 50.4 °F 30.1 in Calm   5 mph 88% 0 in 0 W/m2
20:01 53.4 °F 50 °F 30.1 in WNW 0.9 mph 4 mph 88% 0 in 0 W/m2
20:06 53.2 °F 50 °F 30.1 in WNW 0.9 mph 1 mph 89% 0 in 0 W/m2
20:11 53.1 °F 49.8 °F 30.1 in NW 4 mph 4 mph 89% 0 in 0 W/m2
20:16 52.9 °F 50 °F 30.1 in WSW 4 mph 6 mph 90% 0 in 0 W/m2
20:21 52.9 °F 50 °F 30.1 in WNW 2 mph 5 mph 90% 0 in 0 W/m2
20:26 52.9 °F 50 °F 30.1 in Calm   3 mph 90% 0 in 0 W/m2
20:32 52.9 °F 50 °F 30.1 in West 2 mph 5 mph 90% 0 in 0 W/m2
20:37 52.7 °F 49.8 °F 30.1 in SSW 2 mph 2 mph 90% 0 in 0 W/m2
20:42 52.7 °F 49.8 °F 30.1 in SW 2.9 mph 4 mph 90% 0 in 0 W/m2
20:47 52.7 °F 49.8 °F 30.1 in Calm   3 mph 90% 0 in 0 W/m2
20:52 52.5 °F 49.6 °F 30.1 in WNW 0.9 mph 4 mph 90% 0 in 0 W/m2
20:57 52.7 °F 49.8 °F 30.1 in NW 2 mph 4 mph 90% 0 in 0 W/m2
21:02 52.7 °F 49.8 °F 30.1 in WSW 0.9 mph 4 mph 90% 0 in 0 W/m2
21:07 52.7 °F 49.8 °F 30.1 in WNW 2 mph 6 mph 90% 0 in 0 W/m2
21:12 52.5 °F 49.6 °F 30.1 in WSW 2.9 mph 6 mph 90% 0 in 0 W/m2
21:17 52.5 °F 49.6 °F 30.1 in NW 2.9 mph 3 mph 90% 0 in 0 W/m2
21:22 52.5 °F 49.6 °F 30.1 in West 0.9 mph 2 mph 90% 0 in 0 W/m2
21:27 52.3 °F 49.5 °F 30.1 in WNW 2 mph 4 mph 90% 0 in 0 W/m2
21:32 52.3 °F 49.5 °F 30.1 in West 2 mph 7 mph 90% 0 in 0 W/m2
21:37 52.3 °F 49.5 °F 30.1 in SSE 2 mph 3 mph 90% 0 in 0 W/m2
21:42 52.3 °F 49.5 °F 30.1 in WNW 2 mph 3 mph 90% 0 in 0 W/m2
21:47 52.3 °F 49.5 °F 30.1 in West 2.9 mph 4 mph 90% 0 in 0 W/m2
21:52 52.2 °F 49.3 °F 30.1 in Calm   4 mph 90% 0 in 0 W/m2
21:57 52.2 °F 49.3 °F 30.1 in WNW 2 mph 4 mph 90% 0 in 0 W/m2
22:02 52.2 °F 49.3 °F 30.1 in West 2 mph 2 mph 90% 0 in 0 W/m2
22:07 52 °F 49.1 °F 30.1 in West 2 mph 2 mph 90% 0 in 0 W/m2
22:12 51.6 °F 48.7 °F 30.1 in Calm   1 mph 90% 0 in 0 W/m2
22:17 51.4 °F 48.6 °F 30.1 in Calm   1 mph 90% 0 in 0 W/m2
22:22 51.1 °F 48.6 °F 30.1 in WNW 0.9 mph 2 mph 91% 0 in 0 W/m2
22:27 50.7 °F 48.6 °F 30.1 in Calm   2 mph 92% 0 in 0 W/m2
22:32 50.7 °F 48.6 °F 30.1 in SW 2 mph 4 mph 92% 0 in 0 W/m2
22:37 50.7 °F 48.6 °F 30.1 in West 2.9 mph 3 mph 92% 0 in 0 W/m2
22:42 51.1 °F 48.9 °F 30.1 in WNW 0.9 mph 6 mph 92% 0 in 0 W/m2
22:47 51.1 °F 49.1 °F 30.1 in Calm   6 mph 93% 0 in 0 W/m2
22:52 51.3 °F 49.1 °F 30.1 in Calm   3 mph 92% 0 in 0 W/m2
22:57 51.4 °F 49.3 °F 30.1 in WNW 0.9 mph 1 mph 92% 0 in 0 W/m2
23:02 51.6 °F 49.5 °F 30.1 in SW 0.9 mph 4 mph 92% 0 in 0 W/m2
23:07 51.8 °F 49.3 °F 30.1 in WNW 0.9 mph 1 mph 91% 0 in 0 W/m2
23:12 52 °F 49.5 °F 30.1 in NNW 2 mph 2 mph 91% 0 in 0 W/m2
23:17 52.2 °F 49.6 °F 30.1 in North 2 mph 3 mph 91% 0 in 0 W/m2
23:22 52.2 °F 49.6 °F 30.1 in Calm   1 mph 91% 0 in 0 W/m2
23:27 52.2 °F 49.3 °F 30.1 in NW 2 mph 2 mph 90% 0 in 0 W/m2
23:32 52.2 °F 49.3 °F 30.1 in North 2 mph 2 mph 90% 0 in 0 W/m2
23:37 52.2 °F 49.3 °F 30.1 in NE 2 mph 3 mph 90% 0 in 0 W/m2
23:42 52.2 °F 49.3 °F 30.1 in Calm   2 mph 90% 0 in 0 W/m2
23:47 52.2 °F 49.6 °F 30.1 in NW 0.9 mph 4 mph 91% 0 in 0 W/m2
23:52 52.2 °F 49.6 °F 30.1 in NW 2 mph 2 mph 91% 0 in 0 W/m2
23:57 52.2 °F 49.6 °F 30.1 in NW 2 mph 4 mph 91% 0 in 0 W/m2
Juneau County Weather
Compliments of Weather Underground - 4 mb